TNU57 WIII-WMKK

Flight info

Callsign TNU57
Flight time 1h 31m
Altitude 34000
Route DOLTA A585 PKU N633 SALAX SALAX1G
Aircraft A321/M-SDE3FGHIRWY/LB1

Departure

Time 2026-05-06 12:44
Airport Soekarno-Hatta International Airport (WIII)

Arrival

Time 2026-05-06 14:16
Airport Kuala Lumpur International Airport (WMKK)
Time Latitude Longitude Altitude Speed Heading
2026-05-06 12:19 -6.11997 106.65503 48 ft 0 kts 197°
2026-05-06 12:32 -6.11982 106.65507 48 ft 2 kts 197°
2026-05-06 12:32 -6.11967 106.65512 48 ft 2 kts 197°
2026-05-06 12:33 -6.11953 106.65517 48 ft 2 kts 197°
2026-05-06 12:33 -6.11938 106.65521 48 ft 2 kts 197°
2026-05-06 12:33 -6.11923 106.65526 48 ft 2 kts 197°
2026-05-06 12:33 -6.11911 106.65533 48 ft 2 kts 235°
2026-05-06 12:34 -6.11907 106.65540 48 ft 1 kts 255°
2026-05-06 12:34 -6.11906 106.65544 48 ft 0 kts 249°
2026-05-06 12:36 -6.11906 106.65543 48 ft 0 kts 249°
2026-05-06 12:37 -6.11910 106.65533 48 ft 2 kts 248°
2026-05-06 12:37 -6.11919 106.65511 48 ft 4 kts 247°
2026-05-06 12:37 -6.11935 106.65475 48 ft 6 kts 247°
2026-05-06 12:37 -6.11956 106.65423 48 ft 9 kts 250°
2026-05-06 12:38 -6.11950 106.65357 48 ft 10 kts 301°
2026-05-06 12:38 -6.11900 106.65291 48 ft 12 kts 309°
2026-05-06 12:38 -6.11836 106.65237 48 ft 10 kts 337°
2026-05-06 12:38 -6.11784 106.65196 48 ft 9 kts 277°
2026-05-06 12:39 -6.11797 106.65137 48 ft 9 kts 250°
2026-05-06 12:39 -6.11823 106.65069 48 ft 11 kts 248°
2026-05-06 12:39 -6.11855 106.64988 48 ft 13 kts 248°
2026-05-06 12:39 -6.11892 106.64896 48 ft 15 kts 248°
2026-05-06 12:40 -6.11934 106.64791 48 ft 16 kts 248°
2026-05-06 12:40 -6.11978 106.64681 48 ft 17 kts 248°
2026-05-06 12:40 -6.12026 106.64559 48 ft 19 kts 248°
2026-05-06 12:40 -6.12076 106.64433 48 ft 19 kts 248°
2026-05-06 12:41 -6.12129 106.64301 48 ft 20 kts 248°
2026-05-06 12:41 -6.12182 106.64165 48 ft 21 kts 248°
2026-05-06 12:41 -6.12239 106.64022 48 ft 22 kts 248°
2026-05-06 12:41 -6.12249 106.63905 48 ft 12 kts 317°
2026-05-06 12:42 -6.12224 106.63890 48 ft 3 kts 339°
2026-05-06 12:42 -6.12189 106.63884 48 ft 7 kts
2026-05-06 12:42 -6.12145 106.63899 48 ft 5 kts 28°
2026-05-06 12:42 -6.12111 106.63899 48 ft 4 kts 355°
2026-05-06 12:43 -6.12080 106.63933 48 ft 6 kts 68°
2026-05-06 12:43 -6.12063 106.63977 48 ft 12 kts 68°
2026-05-06 12:43 -6.11932 106.64304 48 ft 86 kts 68°
2026-05-06 12:43 -6.11625 106.65077 48 ft 149 kts 68°
2026-05-06 12:44 -6.11178 106.66195 144 ft 191 kts 68°
2026-05-06 12:44 -6.10841 106.67032 481 ft 198 kts 67°
2026-05-06 12:44 -6.10519 106.67828 922 ft 201 kts 68°
2026-05-06 12:44 -6.09840 106.68984 1918 ft 190 kts 45°
2026-05-06 12:45 -6.08795 106.69765 2509 ft 192 kts 33°
2026-05-06 12:45 -6.07609 106.70469 2782 ft 204 kts 32°
2026-05-06 12:45 -6.04984 106.72017 3255 ft 236 kts 32°
2026-05-06 12:46 -6.03539 106.72890 3551 ft 253 kts 32°
2026-05-06 12:46 -6.01989 106.73832 3943 ft 266 kts 32°
2026-05-06 12:46 -6.00381 106.74764 4574 ft 269 kts 31°
2026-05-06 12:46 -5.98746 106.75661 5229 ft 272 kts 23°
2026-05-06 12:47 -5.96858 106.75896 5827 ft 280 kts 350°
2026-05-06 12:47 -5.95114 106.75068 6453 ft 287 kts 320°
2026-05-06 12:47 -5.93694 106.73644 7138 ft 289 kts 314°
2026-05-06 12:47 -5.92331 106.72186 7780 ft 293 kts 314°
2026-05-06 12:48 -5.90914 106.70693 8453 ft 296 kts 315°
2026-05-06 12:48 -5.89486 106.69216 9121 ft 298 kts 315°
2026-05-06 12:48 -5.88023 106.67726 9780 ft 301 kts 315°
2026-05-06 12:48 -5.86545 106.66232 10397 ft 305 kts 316°
2026-05-06 12:49 -5.85022 106.64703 10718 ft 320 kts 316°
2026-05-06 12:49 -5.83407 106.63084 10998 ft 336 kts 316°
2026-05-06 12:49 -5.81696 106.61372 11270 ft 351 kts 316°
2026-05-06 12:49 -5.79934 106.59610 11527 ft 365 kts 316°
2026-05-06 12:50 -5.78110 106.57786 11848 ft 377 kts 316°
2026-05-06 12:50 -5.76257 106.55934 12385 ft 380 kts 316°
2026-05-06 12:50 -5.74366 106.54044 12982 ft 383 kts 316°
2026-05-06 12:50 -5.72495 106.52174 13545 ft 386 kts 316°
2026-05-06 12:51 -5.70572 106.50253 14105 ft 388 kts 316°
2026-05-06 12:51 -5.68664 106.48349 14651 ft 391 kts 316°
2026-05-06 12:51 -5.66724 106.46413 15195 ft 394 kts 316°
2026-05-06 12:51 -5.64786 106.44479 15723 ft 397 kts 316°
2026-05-06 12:52 -5.62833 106.42530 16239 ft 400 kts 316°
2026-05-06 12:52 -5.60839 106.40540 16751 ft 402 kts 316°
2026-05-06 12:52 -5.58853 106.38560 17244 ft 405 kts 316°
2026-05-06 12:52 -5.56849 106.36561 17727 ft 408 kts 316°
2026-05-06 12:53 -5.54848 106.34564 18195 ft 410 kts 316°
2026-05-06 12:53 -5.52824 106.32546 18651 ft 413 kts 316°
2026-05-06 12:53 -5.50776 106.30504 19092 ft 415 kts 316°
2026-05-06 12:53 -5.48727 106.28464 19520 ft 418 kts 316°
2026-05-06 12:54 -5.46670 106.26415 19949 ft 420 kts 316°
2026-05-06 12:54 -5.44575 106.24328 20370 ft 423 kts 316°
2026-05-06 12:54 -5.42497 106.22259 20776 ft 425 kts 316°
2026-05-06 12:54 -5.40397 106.20166 21182 ft 428 kts 316°
2026-05-06 12:55 -5.38269 106.18045 21576 ft 430 kts 316°
2026-05-06 12:55 -5.36161 106.15945 21958 ft 433 kts 316°
2026-05-06 12:55 -5.34018 106.13810 22339 ft 435 kts 316°
2026-05-06 12:55 -5.31857 106.11657 22706 ft 437 kts 317°
2026-05-06 12:56 -5.29701 106.09511 23056 ft 440 kts 317°
2026-05-06 12:56 -5.27533 106.07354 23408 ft 442 kts 317°
2026-05-06 12:56 -5.25352 106.05183 23759 ft 444 kts 317°
2026-05-06 12:56 -5.23137 106.02979 24103 ft 447 kts 317°
2026-05-06 12:57 -5.20936 106.00789 24440 ft 449 kts 317°
2026-05-06 12:57 -5.18725 105.98589 24774 ft 451 kts 317°
2026-05-06 12:57 -5.16501 105.96375 25102 ft 453 kts 317°
2026-05-06 12:57 -5.14224 105.94224 25414 ft 454 kts 321°
2026-05-06 12:58 -5.11741 105.92239 25725 ft 454 kts 326°
2026-05-06 12:58 -5.09136 105.90507 26023 ft 455 kts 330°
2026-05-06 12:58 -5.06402 105.88912 26319 ft 457 kts 332°
2026-05-06 12:58 -5.03632 105.87344 26601 ft 459 kts 332°
2026-05-06 12:59 -5.00831 105.85764 26880 ft 461 kts 332°
2026-05-06 12:59 -4.98025 105.84179 27154 ft 463 kts 332°
2026-05-06 12:59 -4.95248 105.82606 27451 ft 464 kts 332°
2026-05-06 12:59 -4.92446 105.81015 27837 ft 462 kts 332°
2026-05-06 13:00 -4.89655 105.79428 28231 ft 461 kts 332°
2026-05-06 13:00 -4.86884 105.77852 28597 ft 460 kts 332°
2026-05-06 13:00 -4.84107 105.76271 28956 ft 460 kts 332°
2026-05-06 13:00 -4.81345 105.74699 29302 ft 459 kts 332°
2026-05-06 13:01 -4.78570 105.73119 29645 ft 458 kts 331°
2026-05-06 13:01 -4.75776 105.71528 29990 ft 458 kts 332°
2026-05-06 13:01 -4.73048 105.69973 30311 ft 458 kts 331°
2026-05-06 13:01 -4.70293 105.68404 30584 ft 459 kts 331°
2026-05-06 13:02 -4.67505 105.66818 30680 ft 464 kts 331°
2026-05-06 13:02 -4.64673 105.65207 30789 ft 468 kts 331°
2026-05-06 13:02 -4.61838 105.63594 30892 ft 472 kts 331°
2026-05-06 13:03 -4.56104 105.60331 31078 ft 479 kts 331°
2026-05-06 13:03 -4.50294 105.57026 31297 ft 484 kts 331°
2026-05-06 13:03 -4.47352 105.55352 31496 ft 484 kts 331°
2026-05-06 13:04 -4.44445 105.53699 31716 ft 483 kts 331°
2026-05-06 13:04 -4.41549 105.52052 31929 ft 483 kts 331°
2026-05-06 13:04 -4.38630 105.50392 32136 ft 482 kts 331°
2026-05-06 13:04 -4.35709 105.48731 32340 ft 482 kts 331°
2026-05-06 13:05 -4.32798 105.47077 32539 ft 481 kts 331°
2026-05-06 13:05 -4.29898 105.45428 32734 ft 481 kts 331°
2026-05-06 13:05 -4.26999 105.43780 32924 ft 481 kts 331°
2026-05-06 13:05 -4.24111 105.42139 33109 ft 480 kts 331°
2026-05-06 13:06 -4.21214 105.40494 33290 ft 480 kts 331°
2026-05-06 13:06 -4.18306 105.38841 33471 ft 480 kts 331°
2026-05-06 13:06 -4.15388 105.37183 33650 ft 480 kts 331°
2026-05-06 13:06 -4.12537 105.35564 33816 ft 479 kts 331°
2026-05-06 13:07 -4.09603 105.33897 33854 ft 479 kts 331°
2026-05-06 13:07 -4.03842 105.30625 33860 ft 479 kts 331°
2026-05-06 13:08 -3.98049 105.27336 33862 ft 479 kts 331°
2026-05-06 13:08 -3.92252 105.24044 33862 ft 479 kts 331°
2026-05-06 13:09 -3.86472 105.20782 33862 ft 478 kts 331°
2026-05-06 13:09 -3.80703 105.17535 33862 ft 478 kts 331°
2026-05-06 13:10 -3.74925 105.14284 33862 ft 478 kts 332°
2026-05-06 13:10 -3.69113 105.11011 33862 ft 478 kts 332°
2026-05-06 13:11 -3.63357 105.07773 33862 ft 478 kts 332°
2026-05-06 13:11 -3.57547 105.04503 33862 ft 478 kts 332°
2026-05-06 13:12 -3.51783 105.01260 33862 ft 478 kts 332°
2026-05-06 13:12 -3.46016 104.98015 33862 ft 478 kts 332°
2026-05-06 13:13 -3.40238 104.94765 33862 ft 477 kts 332°
2026-05-06 13:13 -3.34464 104.91518 33862 ft 477 kts 331°
2026-05-06 13:14 -3.28668 104.88258 33862 ft 477 kts 331°
2026-05-06 13:14 -3.22902 104.85017 33862 ft 476 kts 332°
2026-05-06 13:15 -3.17128 104.81771 33862 ft 476 kts 332°
2026-05-06 13:15 -3.11373 104.78536 33862 ft 476 kts 332°
2026-05-06 13:16 -3.05620 104.75304 33862 ft 476 kts 332°
2026-05-06 13:16 -2.99848 104.72061 33862 ft 476 kts 332°
2026-05-06 13:17 -2.94090 104.68818 33861 ft 476 kts 330°
2026-05-06 13:17 -2.88552 104.65210 33862 ft 477 kts 324°
2026-05-06 13:18 -2.83444 104.61013 33862 ft 477 kts 318°
2026-05-06 13:18 -2.78692 104.56422 33862 ft 477 kts 316°
2026-05-06 13:19 -2.73943 104.51771 33862 ft 476 kts 316°
2026-05-06 13:19 -2.69235 104.47169 33862 ft 476 kts 316°
2026-05-06 13:20 -2.64483 104.42532 33862 ft 476 kts 316°
2026-05-06 13:20 -2.59762 104.37929 33862 ft 476 kts 316°
2026-05-06 13:21 -2.55010 104.33298 33862 ft 476 kts 316°
2026-05-06 13:21 -2.50271 104.28679 33862 ft 476 kts 316°
2026-05-06 13:22 -2.45565 104.24091 33862 ft 476 kts 316°
2026-05-06 13:22 -2.40822 104.19471 33862 ft 475 kts 316°
2026-05-06 13:23 -2.36081 104.14851 33862 ft 475 kts 316°
2026-05-06 13:23 -2.31200 104.10096 33862 ft 475 kts 316°
2026-05-06 13:24 -2.25981 104.05013 33862 ft 475 kts 316°
2026-05-06 13:24 -2.20799 103.99966 33862 ft 475 kts 316°
2026-05-06 13:25 -2.15584 103.94888 33862 ft 475 kts 316°
2026-05-06 13:25 -2.10416 103.89854 33862 ft 475 kts 316°
2026-05-06 13:26 -2.05194 103.84770 33862 ft 475 kts 316°
2026-05-06 13:26 -2.00012 103.79725 33862 ft 475 kts 316°
2026-05-06 13:27 -1.94829 103.74679 33862 ft 475 kts 316°
2026-05-06 13:27 -1.89618 103.69606 33862 ft 475 kts 316°
2026-05-06 13:28 -1.84414 103.64542 33862 ft 475 kts 316°
2026-05-06 13:28 -1.79211 103.59478 33862 ft 476 kts 316°
2026-05-06 13:29 -1.74019 103.54427 33862 ft 475 kts 316°
2026-05-06 13:29 -1.68806 103.49354 33862 ft 475 kts 316°
2026-05-06 13:30 -1.63615 103.44302 33862 ft 476 kts 316°
2026-05-06 13:30 -1.58571 103.39395 33862 ft 476 kts 316°
2026-05-06 13:31 -1.53389 103.34353 33861 ft 476 kts 316°
2026-05-06 13:31 -1.48178 103.29284 33862 ft 476 kts 316°
2026-05-06 13:32 -1.42950 103.24198 33862 ft 476 kts 316°
2026-05-06 13:32 -1.39395 103.20740 33862 ft 477 kts 316°
2026-05-06 13:33 -1.34691 103.16164 33862 ft 477 kts 316°
2026-05-06 13:33 -1.29393 103.11012 33862 ft 477 kts 316°
2026-05-06 13:34 -1.24289 103.06049 33862 ft 477 kts 316°
2026-05-06 13:34 -1.19312 103.01209 33861 ft 477 kts 316°
2026-05-06 13:35 -1.14447 102.96479 33857 ft 477 kts 316°
2026-05-06 13:35 -1.09202 102.91379 33848 ft 477 kts 316°
2026-05-06 13:36 -1.04005 102.86329 33841 ft 477 kts 316°
2026-05-06 13:36 -0.98774 102.81254 33838 ft 478 kts 316°
2026-05-06 13:37 -0.93543 102.76178 33837 ft 478 kts 316°
2026-05-06 13:37 -0.88306 102.71097 33837 ft 478 kts 316°
2026-05-06 13:38 -0.83067 102.66014 33837 ft 479 kts 316°
2026-05-06 13:38 -0.77832 102.60937 33837 ft 479 kts 316°
2026-05-06 13:39 -0.72564 102.55827 33837 ft 479 kts 316°
2026-05-06 13:39 -0.67335 102.50754 33837 ft 479 kts 316°
2026-05-06 13:40 -0.62089 102.45666 33837 ft 479 kts 316°
2026-05-06 13:40 -0.56831 102.40565 33837 ft 479 kts 316°
2026-05-06 13:41 -0.52092 102.35968 33837 ft 479 kts 316°
2026-05-06 13:41 -0.47324 102.31344 33837 ft 479 kts 316°
2026-05-06 13:42 -0.42549 102.26712 33837 ft 479 kts 316°
2026-05-06 13:42 -0.37780 102.22087 33837 ft 479 kts 316°
2026-05-06 13:43 -0.32988 102.17439 33837 ft 479 kts 316°
2026-05-06 13:43 -0.28202 102.12797 33837 ft 479 kts 316°
2026-05-06 13:44 -0.23516 102.08253 33837 ft 479 kts 316°
2026-05-06 13:44 -0.18685 102.03567 33837 ft 479 kts 316°
2026-05-06 13:45 -0.13891 101.98918 33837 ft 479 kts 316°
2026-05-06 13:45 -0.06743 101.91985 33837 ft 480 kts 316°
2026-05-06 13:46 -0.01949 101.87336 33837 ft 480 kts 316°
2026-05-06 13:46 0.02801 101.82729 33837 ft 480 kts 316°
2026-05-06 13:47 0.07583 101.78091 33837 ft 480 kts 316°
2026-05-06 13:47 0.12364 101.73454 33837 ft 480 kts 316°
2026-05-06 13:48 0.17150 101.68813 33837 ft 480 kts 316°
2026-05-06 13:48 0.21910 101.64197 33837 ft 480 kts 316°
2026-05-06 13:49 0.26706 101.59546 33837 ft 480 kts 316°
2026-05-06 13:49 0.31491 101.54906 33837 ft 480 kts 316°
2026-05-06 13:50 0.36332 101.50336 33834 ft 479 kts 321°
2026-05-06 13:50 0.41940 101.46877 33836 ft 478 kts 337°
2026-05-06 13:51 0.48281 101.45046 33837 ft 476 kts 353°
2026-05-06 13:51 0.54851 101.44915 33839 ft 475 kts
2026-05-06 13:52 0.61450 101.45403 33837 ft 474 kts
2026-05-06 13:52 0.67989 101.45892 33837 ft 474 kts
2026-05-06 13:53 0.74563 101.46356 33837 ft 474 kts
2026-05-06 13:53 0.81100 101.46807 33837 ft 474 kts
2026-05-06 13:54 0.87667 101.47257 33837 ft 474 kts
2026-05-06 13:54 0.93823 101.47677 33761 ft 468 kts
2026-05-06 13:55 0.97004 101.47894 33542 ft 458 kts
2026-05-06 13:55 1.00169 101.48109 33071 ft 453 kts
2026-05-06 13:55 1.03271 101.48321 32502 ft 450 kts
2026-05-06 13:55 1.06407 101.48534 31879 ft 449 kts
2026-05-06 13:56 1.09495 101.48745 31162 ft 450 kts
2026-05-06 13:56 1.12635 101.48960 30367 ft 452 kts
2026-05-06 13:56 1.15800 101.49178 29542 ft 454 kts
2026-05-06 13:56 1.18966 101.49393 28713 ft 456 kts
2026-05-06 13:57 1.22151 101.49611 27872 ft 457 kts
2026-05-06 13:57 1.25288 101.49825 27020 ft 459 kts
2026-05-06 13:57 1.28482 101.50043 26330 ft 454 kts
2026-05-06 13:57 1.31829 101.50272 26054 ft 451 kts
2026-05-06 13:58 1.35272 101.50507 25778 ft 449 kts
2026-05-06 13:58 1.38713 101.50742 25494 ft 448 kts
2026-05-06 13:58 1.42120 101.50976 25152 ft 445 kts
2026-05-06 13:58 1.45452 101.51203 24753 ft 443 kts
2026-05-06 13:59 1.48832 101.51434 24244 ft 439 kts
2026-05-06 13:59 1.52168 101.51661 23691 ft 435 kts
2026-05-06 13:59 1.55485 101.51887 23117 ft 431 kts
2026-05-06 13:59 1.58731 101.52110 22546 ft 427 kts
2026-05-06 14:00 1.61965 101.52331 21960 ft 423 kts
2026-05-06 14:00 1.65168 101.52550 21379 ft 419 kts
2026-05-06 14:00 1.68336 101.52766 20800 ft 416 kts
2026-05-06 14:00 1.71492 101.52982 20470 ft 414 kts
2026-05-06 14:01 1.74677 101.53199 20191 ft 413 kts
2026-05-06 14:01 1.77775 101.53410 19920 ft 411 kts
2026-05-06 14:01 1.80929 101.53625 19642 ft 410 kts
2026-05-06 14:01 1.84031 101.53837 19369 ft 408 kts
2026-05-06 14:02 1.87143 101.54049 19093 ft 406 kts
2026-05-06 14:02 1.90236 101.54260 18818 ft 405 kts
2026-05-06 14:02 1.93297 101.54471 18544 ft 404 kts
2026-05-06 14:02 1.96384 101.54681 18249 ft 402 kts
2026-05-06 14:03 1.99434 101.54890 17911 ft 400 kts
2026-05-06 14:03 2.02476 101.55097 17491 ft 398 kts
2026-05-06 14:03 2.05479 101.55303 16973 ft 394 kts
2026-05-06 14:03 2.08477 101.55517 16369 ft 391 kts
2026-05-06 14:04 2.11336 101.56257 15476 ft 391 kts 27°
2026-05-06 14:04 2.13760 101.58001 14329 ft 398 kts 44°
2026-05-06 14:04 2.15899 101.60152 13370 ft 401 kts 46°
2026-05-06 14:04 2.18029 101.62323 12285 ft 406 kts 45°
2026-05-06 14:05 2.20026 101.64273 11486 ft 396 kts 44°
2026-05-06 14:05 2.21981 101.66122 10742 ft 375 kts 43°
2026-05-06 14:05 2.23850 101.67857 9743 ft 365 kts 43°
2026-05-06 14:05 2.25694 101.69552 8264 ft 369 kts 43°
2026-05-06 14:06 2.27573 101.71265 7319 ft 367 kts 42°
2026-05-06 14:06 2.29439 101.72961 7027 ft 354 kts 42°
2026-05-06 14:06 2.31216 101.74573 6795 ft 341 kts 42°
2026-05-06 14:06 2.32922 101.76121 6577 ft 328 kts 42°
2026-05-06 14:07 2.34604 101.77647 6366 ft 317 kts 42°
2026-05-06 14:07 2.36193 101.79088 6168 ft 306 kts 42°
2026-05-06 14:07 2.37754 101.80503 5930 ft 297 kts 42°
2026-05-06 14:07 2.39270 101.81875 5654 ft 290 kts 42°
2026-05-06 14:08 2.40738 101.83205 5379 ft 284 kts 42°
2026-05-06 14:08 2.42187 101.84519 5126 ft 277 kts 42°
2026-05-06 14:08 2.43599 101.85799 4863 ft 272 kts 42°
2026-05-06 14:08 2.44983 101.87054 4624 ft 265 kts 42°
2026-05-06 14:09 2.46330 101.88277 4598 ft 255 kts 42°
2026-05-06 14:09 2.47731 101.89253 4498 ft 244 kts 18°
2026-05-06 14:09 2.49351 101.89281 4483 ft 230 kts 341°
2026-05-06 14:09 2.50747 101.88504 4513 ft 229 kts 325°
2026-05-06 14:10 2.52030 101.87590 4505 ft 229 kts 324°
2026-05-06 14:10 2.53333 101.86653 4501 ft 229 kts 324°
2026-05-06 14:10 2.54625 101.85746 4498 ft 229 kts 325°
2026-05-06 14:10 2.55938 101.84847 4416 ft 229 kts 326°
2026-05-06 14:11 2.57269 101.83951 4152 ft 228 kts 326°
2026-05-06 14:11 2.58575 101.83079 3849 ft 227 kts 327°
2026-05-06 14:11 2.59891 101.82203 3548 ft 225 kts 327°
2026-05-06 14:11 2.61167 101.81353 3351 ft 216 kts 327°
2026-05-06 14:12 2.62387 101.80539 3045 ft 211 kts 327°
2026-05-06 14:12 2.63602 101.79727 2731 ft 206 kts 327°
2026-05-06 14:12 2.64779 101.78941 2450 ft 197 kts 327°
2026-05-06 14:12 2.65870 101.78210 2193 ft 182 kts 327°
2026-05-06 14:13 2.66890 101.77528 1930 ft 170 kts 327°
2026-05-06 14:13 2.67842 101.76891 1695 ft 160 kts 327°
2026-05-06 14:13 2.68757 101.76279 1500 ft 159 kts 326°
2026-05-06 14:13 2.69675 101.75664 1303 ft 158 kts 326°
2026-05-06 14:14 2.70592 101.75050 1104 ft 156 kts 326°
2026-05-06 14:14 2.71483 101.74450 898 ft 154 kts 326°
2026-05-06 14:14 2.72371 101.73850 690 ft 154 kts 327°
2026-05-06 14:14 2.73262 101.73264 483 ft 153 kts 327°
2026-05-06 14:15 2.74137 101.72668 272 ft 153 kts 326°
2026-05-06 14:15 2.75017 101.72079 97 ft 152 kts 326°
2026-05-06 14:15 2.75819 101.71542 76 ft 118 kts 328°
2026-05-06 14:15 2.76356 101.71185 76 ft 54 kts 326°
2026-05-06 14:16 2.76484 101.71085 76 ft 20 kts 310°
2026-05-06 14:16 2.76557 101.70963 76 ft 16 kts 295°
2026-05-06 14:16 2.76581 101.70908 76 ft 2 kts 288°
2026-05-06 14:16 2.76584 101.70885 76 ft 4 kts 265°
2026-05-06 14:17 2.76570 101.70856 76 ft 5 kts 219°
2026-05-06 14:17 2.76533 101.70848 76 ft 6 kts 173°
2026-05-06 14:17 2.76485 101.70870 76 ft 8 kts 146°
2026-05-06 14:17 2.76427 101.70910 76 ft 11 kts 146°
2026-05-06 14:18 2.76357 101.70957 76 ft 13 kts 146°
2026-05-06 14:18 2.76277 101.71011 76 ft 14 kts 146°
2026-05-06 14:18 2.76188 101.71071 76 ft 16 kts 146°
2026-05-06 14:18 2.76087 101.71139 76 ft 18 kts 146°
2026-05-06 14:19 2.75974 101.71214 76 ft 18 kts 147°
2026-05-06 14:19 2.75859 101.71290 76 ft 20 kts 146°
2026-05-06 14:19 2.75733 101.71374 76 ft 22 kts 146°
2026-05-06 14:19 2.75599 101.71465 76 ft 24 kts 146°
2026-05-06 14:20 2.75455 101.71561 76 ft 25 kts 146°
2026-05-06 14:20 2.75335 101.71641 76 ft 17 kts 146°
2026-05-06 14:20 2.75235 101.71709 76 ft 17 kts 146°
2026-05-06 14:20 2.75131 101.71779 76 ft 18 kts 146°
2026-05-06 14:21 2.75028 101.71847 76 ft 9 kts 146°
2026-05-06 14:21 2.74981 101.71866 76 ft 7 kts 191°